Regional Weather Roundup
Issued by NWS State College, PA

Home | Current Version | Previous Version | Text Only | Print | Product List | Glossary On
Versions: 1 2 3 4 5 6 7 8 9 10 11 12 13 14 15 16 17 18 19 20 21 22 23 24 25 26 27 28 29 30 31 32 33 34 35 36 37 38 39 40 41 42 43 44 45 46 47 48 49 50
000
ASUS41 KCTP 261910
RWRCTP

REGIONAL WEATHER ROUNDUP
NATIONAL WEATHER SERVICE STATE COLLEGE PA
300 PM EDT THU MAR 26 2015

Note: "fair" indicates few or no clouds below 12,000 feet with no
significant weather and/or obstructions to visibility.

* = STATION THAT DOES NOT REPORT PRECIPITATION /E.G. RAIN...SNOW...ETC/
    THUNDER OR FOG.

PAZ002>004-007>009-013>016-020>023-029>032-262000-
WESTERN PENNSYLVANIA

CITY           SKY/WX    TMP DP  RH WIND       PRES   REMARKS
ERIE           FOG       33  31  92 NW6       29.81F VSB 1
MEADVILLE      CLOUDY    38  35  89 NW6       29.76F
FRANKLIN*      CLOUDY    37  36  93 NW7       29.77F
NEW CASTLE     CLOUDY    41  40  96 NW6       29.80R
BEAVER COUNTY  CLOUDY    41  39  93 N10       29.76F
BUTLER*        CLOUDY    43  39  87 NW6       29.77R
PITTSBURGH INT LGT RAIN  43  40  89 N14       29.75S
PITTSBURGH     LGT RAIN  43  38  82 NW12      29.73S
INDIANA*       CLOUDY    43  41  93 N8        29.76R FOG
LATROBE        LGT RAIN  45  45 100 N6        29.75R FOG
WASHINGTON CO* CLOUDY    43  39  87 N7        29.77S
$$

PAZ004>006-010>012-017>019-024>028-033>037-041-042-045-046-049>053-262000-
CENTRAL PENNSYLVANIA

CITY           SKY/WX    TMP DP  RH WIND       PRES   REMARKS
BRADFORD       LGT RAIN  36  34  92 N6        29.71F FOG
DUBOIS         CLOUDY    42  38  85 N9        29.69F
CLEARFIELD     LGT RAIN  41  38  89 N7        29.71R FOG
JOHNSTOWN      CLOUDY    48  45  89 NW20      29.67R
ALTOONA        CLOUDY    66  48  52 NW3       29.60F
STATE COLLEGE  NOT AVBL
WILLIAMSPORT   CLOUDY    49  39  68 W10       29.67F
SELINSGROVE    PTSUNNY   62  52  69 S18G24    29.63F
FT INDIANTOWN  CLOUDY    54  46  74 NE6       29.66F
CAPITAL CITY   PTSUNNY   63  50  62 E8        29.63F
HARRISBURG     PTSUNNY   67  52  58 E8        29.63F
YORK           PTSUNNY   67  56  67 S14G30    29.64F
$$

PAZ038>040-043-044-047-048-054-055-060>062-067>071-262000-
EASTERN PENNSYLVANIA

CITY           SKY/WX    TMP DP  RH WIND       PRES   REMARKS
SCRANTON       CLOUDY    60  50  69 S15G22    29.63F
MOUNT POCONO   FOG       48  46  93 S15G24    29.67F VSB<1/4
ALLENTOWN      CLOUDY    48  45  89 N3        29.70F FOG
QUAKERTOWN*    CLOUDY    55  55 100 SW6       29.71F
READING        CLOUDY    51  47  86 CALM      29.67F FOG
LANCASTER      CLOUDY    60  56  86 S15       29.66F
COATESVILLE    FOG       55  55 100 S5        29.70F VSB<1/4
POTTSTOWN      CLOUDY    58  58 100 S9        29.71F
BLUE BELL      CLOUDY    59  59 100 CALM      29.70F
DOYLESTOWN     CLOUDY    54  54 100 S6        29.69F FOG
WILLOW GROVE   NOT AVBL
NORTH PHILA    CLOUDY    64  58  80 SW7       29.72F HAZE
PHILADELPHIA   CLOUDY    64  59  83 S15G21    29.70F
$$


USA.gov is the U.S. government's official web portal to all federal, state and local government web resources and services.